Temp
13 13 13 13 13 13 13 14 14 14 14 14 15 15 15 15 15 15 15 15 15 15 15 15 15 14 15 15 15 15 15 15 15 15 15 15 15 15 15 15 15 15 15 15 15 15 14 14 14 14 14 14 14 14 14 14 14 14 14 14 15 15 15 15 15 15 16 16 16
12 12 12 13 13 13 13 13 14 14 14 14 14 14 14 14 14 14 15 15 15 15 15 15 14 14 14 14 15 15 15 15 15 15 15 15 15 15 15 15 15 15 15 15 15 14 14 14 14 14 14 14 14 14 14 14 14 14 14 14 14 14 14 14 14 15 15 15 16
9 9 10 10 11 11 11 11 11 11 12 12 12 13 13 13 14 14 14 14 15 15 15 14 14 14 14 14 15 15 15 15 15 15 15 15 15 15 14 14 14 15 15 15 14 15 14 14 14 14 14 14 14 14 14 14 14 14 14 14 14 14 14 14 14 14 14 15 15
8 8 8 8 8 9 9 9 9 9 10 10 11 11 11 11 12 12 13 14 14 14 14 14 14 14 14 14 14 15 15 15 15 15 15 15 15 15 14 14 14 14 14 14 14 14 14 14 14 14 14 14 14 14 14 14 14 14 13 13 13 13 13 13 14 14 14 13 14
7 7 7 7 7 7 8 8 8 8 8 9 9 10 10 10 11 11 12 12 13 13 14 14 14 14 14 14 14 14 15 15 15 15 15 15 15 15 15 14 14 14 14 14 14 14 14 14 14 14 14 14 14 14 14 14 14 13 13 13 13 13 13 13 13 13 13 13 13
5 5 6 6 6 6 7 7 7 7 8 8 8 8 9 9 9 10 10 11 11 12 12 13 13 14 14 14 14 14 15 15 15 15 15 15 15 15 14 14 14 14 14 14 14 14 14 14 14 14 14 14 14 14 14 14 14 13 13 13 13 13 13 13 13 13 13 13 13
5 5 5 5 5 5 6 6 6 7 7 7 7 7 7 8 8 8 9 9 10 11 11 12 12 13 13 14 14 14 14 14 14 14 14 14 14 14 14 14 14 14 14 14 14 14 14 14 14 14 14 14 14 14 14 14 14 13 13 13 13 13 13 13 13 13 13 13 13
4 4 4 4 5 5 5 5 6 6 6 6 6 6 6 7 7 7 8 8 9 9 10 10 11 11 12 12 13 13 13 13 13 13 14 14 14 14 14 14 14 14 14 14 14 14 14 14 14 14 14 14 14 14 14 14 14 14 13 13 13 13 13 13 13 13 13 13 13
3 3 4 4 4 4 4 4 5 5 5 6 6 6 6 6 6 7 7 7 7 8 8 9 9 10 11 11 11 11 12 12 13 13 13 13 13 14 14 14 14 14 14 14 15 15 14 14 14 14 14 14 14 14 14 14 14 14 13 13 13 13 13 13 13 13 13 13 13
3 3 3 3 3 3 4 4 4 4 5 5 5 5 5 5 6 6 6 6 7 7 8 8 8 9 9 9 10 10 10 11 11 12 12 13 13 13 14 14 14 14 14 14 14 14 14 14 14 14 14 14 14 14 14 14 14 14 13 13 13 13 13 13 13 13 13 13 13
2 2 2 2 3 3 3 3 3 3 4 4 4 4 4 5 5 5 5 6 6 6 7 7 8 8 8 8 8 8 9 9 10 10 10 11 11 12 12 13 13 14 14 14 14 14 14 14 14 14 14 14 14 13 13 14 14 13 13 13 13 13 13 13 13 13 13 13 13
2 2 2 2 2 2 3 3 3 3 3 3 3 3 4 4 4 4 5 5 6 6 6 6 7 7 7 7 7 7 8 8 9 9 9 10 10 10 11 11 12 12 13 13 13 13 14 14 14 14 14 14 13 13 13 13 13 13 13 13 13 13 13 13 13 13 13 13 13
2 2 2 2 2 2 2 2 2 2 3 3 3 3 3 3 4 4 4 5 5 5 5 5 6 6 6 6 7 7 7 8 8 9 9 9 9 10 10 10 10 11 11 11 12 12 13 13 13 13 13 13 13 13 13 13 13 13 13 13 13 13 13 13 13 13 13 13 13
2 2 2 2 2 2 2 2 2 2 2 3 3 3 3 3 3 4 4 4 4 4 4 4 5 5 5 6 6 6 7 8 8 8 9 9 9 9 9 9 9 10 10 10 10 11 11 12 12 13 13 13 13 13 13 13 13 13 13 13 13 13 13 13 13 13 13 13 13
3 3 2 2 2 2 2 2 2 2 2 2 2 3 3 3 3 3 4 4 4 4 4 4 4 4 5 5 5 6 6 7 8 8 8 9 9 9 8 8 8 8 9 9 9 9 10 10 10 11 12 12 13 13 13 13 13 13 13 13 13 13 13 13 13 13 13 13 13
2 2 2 2 2 2 2 2 2 2 2 2 2 2 3 3 3 3 3 3 3 4 4 4 4 4 4 4 5 5 5 6 6 7 7 7 7 8 8 8 8 8 8 8 8 8 9 9 9 9 9 10 11 11 12 12 12 13 13 13 13 13 13 13 13 13 13 13 13
1 1 1 1 1 1 1 2 2 2 2 2 2 2 2 3 3 3 3 3 3 3 3 3 3 3 4 4 4 4 4 4 5 5 5 5 6 6 6 7 7 7 8 8 8 8 8 8 8 8 8 9 9 9 10 10 11 12 12 12 12 12 12 12 12 12 12 12 12
0 0 0 1 1 1 1 1 1 1 1 2 2 2 2 2 2 3 3 3 3 3 3 3 3 3 3 3 3 3 4 4 4 4 4 4 4 5 5 5 6 7 7 8 8 8 8 8 8 8 8 8 8 9 9 9 9 10 10 11 12 12 12 12 12 12 12 12 12
-0 -0 -0 -0 0 0 1 1 1 1 1 1 1 1 2 2 2 2 3 3 3 2 2 3 3 3 3 3 3 3 3 3 3 3 3 4 4 4 4 4 5 5 6 6 7 7 7 8 8 8 8 8 8 8 8 8 9 9 9 10 10 11 11 12 12 12 12 12 12
-1 -1 -1 -0 -0 0 0 1 1 1 1 1 1 1 1 1 2 2 2 2 2 2 2 2 2 3 3 3 3 3 3 3 3 3 3 3 3 3 3 3 4 4 4 5 5 6 6 7 7 8 8 8 8 8 8 8 8 8 8 9 9 9 10 10 11 11 12 12 12
-1 -1 -1 -1 -0 -0 0 0 0 0 0 0 1 1 1 1 1 1 1 1 2 2 2 2 2 2 2 3 3 3 2 3 3 3 3 3 3 3 3 3 3 3 3 3 4 4 4 5 5 6 6 7 7 7 7 7 8 8 8 8 8 9 9 9 10 10 11 11 12
-1 -1 -1 -1 -1 -1 -1 -0 -0 -0 0 0 0 0 0 0 1 1 1 1 2 2 1 1 1 1 2 2 2 2 2 3 3 3 3 3 3 3 3 3 3 3 3 3 3 3 3 3 4 4 5 5 5 6 6 6 7 7 8 8 8 8 9 9 9 9 9 10 10
-2 -2 -2 -2 -1 -1 -1 -1 -1 -0 -0 -0 0 0 0 0 0 1 1 2 2 2 1 1 1 1 1 1 2 2 2 3 3 3 3 3 3 3 3 3 2 2 2 2 2 2 3 3 3 3 3 3 4 4 5 5 5 6 6 7 7 8 8 8 8 9 9 9 9
-2 -2 -2 -2 -2 -2 -2 -1 -1 -1 -1 -1 -0 -0 -0 -0 0 1 1 1 2 2 1 1 1 1 1 2 2 2 2 3 3 3 3 3 3 3 3 2 2 2 2 2 2 2 2 2 2 3 3 3 3 3 3 4 4 4 4 5 6 6 7 8 8 8 8 8 9
-2 -2 -2 -2 -2 -2 -2 -1 -1 -1 -1 -1 -1 -0 -0 -0 -0 0 1 1 1 1 1 1 1 1 1 2 2 2 2 2 2 2 3 3 3 2 2 2 1 1 1 1 1 2 2 2 2 2 2 2 2 2 3 3 3 3 4 4 4 5 5 6 7 7 8 8 8
-2 -2 -2 -2 -1 -1 -1 -1 -1 -1 -1 -1 -0 -0 -0 -0 -0 0 0 0 0 0 0 1 1 1 1 1 2 2 2 2 2 2 2 2 2 2 2 1 1 1 1 1 1 1 1 2 2 2 2 2 2 2 2 2 2 3 3 3 3 3 4 4 5 5 6 7 7
-2 -2 -2 -1 -1 -1 -1 -1 -1 -1 -0 -0 -0 -0 0 0 0 1 0 0 0 0 0 0 -0 -0 -0 0 1 1 1 1 1 1 1 1 1 1 1 1 0 0 0 0 1 1 1 1 1 1 1 1 2 2 2 2 2 2 2 2 3 3 3 3 3 4 4 5 6
-2 -2 -2 -1 -1 -1 -1 -1 -1 -1 -1 -1 -0 -0 0 1 1 1 0 0 0 0 0 -0 -0 -0 0 0 1 1 1 1 1 1 1 1 1 0 0 0 0 0 0 0 0 1 1 1 1 1 1 1 1 1 1 2 2 2 2 2 2 2 2 2 3 3 3 4 4
-3 -2 -2 -2 -2 -2 -2 -2 -2 -2 -1 -1 -1 -0 -0 0 -0 -0 -0 -0 -0 -0 -1 -0 -0 0 1 0 0 1 1 1 0 0 1 1 0 0 -0 -0 -0 -0 -0 -0 0 0 0 1 1 1 1 1 1 1 1 1 1 1 1 1 2 2 2 2 2 2 3 3 3
-2 -2 -2 -3 -3 -2 -2 -2 -2 -2 -2 -2 -1 -1 -1 -1 -1 -1 -1 -1 -1 -1 -1 -1 -0 0 0 0 0 0 0 0 1 1 1 0 -0 -0 -0 -0 -0 -0 -0 -0 -0 0 0 0 0 1 1 1 1 1 0 0 1 1 1 1 1 1 1 2 2 2 2 3 3
-2 -2 -2 -2 -2 -2 -2 -2 -2 -2 -2 -2 -2 -2 -2 -2 -2 -3 -2 -2 -2 -2 -1 -1 -1 -1 -1 -0 -0 -0 -0 0 0 0 0 0 -0 -0 -0 -0 -0 -0 -1 -1 -0 -0 -0 0 0 0 0 1 0 0 -0 0 0 0 0 1 1 1 1 1 2 2 2 2 2
-2 -2 -2 -2 -2 -2 -2 -2 -2 -2 -2 -2 -2 -2 -2 -3 -3 -3 -3 -3 -3 -2 -2 -2 -2 -2 -1 -1 -1 -1 -1 -1 -1 -1 -0 -0 -0 0 0 0 0 -0 -1 -1 -1 -1 -0 -0 -0 0 0 0 0 -0 -0 -0 -0 -0 0 0 1 1 1 1 1 2 2 2 2
-3 -3 -3 -3 -3 -3 -3 -2 -2 -2 -2 -2 -2 -2 -2 -3 -2 -2 -3 -3 -3 -3 -3 -3 -3 -3 -3 -2 -2 -2 -2 -2 -1 -1 -1 -1 -1 -0 0 0 0 -0 -1 -1 -1 -1 -1 -0 -0 0 0 0 0 -0 -0 -0 -0 -0 0 0 1 1 1 1 1 1 2 2 2
-4 -3 -3 -3 -3 -3 -3 -3 -3 -3 -3 -3 -3 -3 -3 -3 -3 -3 -3 -3 -3 -3 -3 -3 -3 -3 -3 -3 -2 -2 -2 -2 -2 -2 -1 -1 -1 -1 -1 -0 -0 -1 -1 -1 -1 -1 -1 -0 -0 -0 0 0 -0 -0 -1 -0 -0 -0 0 0 0 1 1 1 1 2 2 2 2
-4 -4 -4 -4 -4 -4 -4 -4 -4 -4 -4 -4 -4 -4 -4 -4 -4 -4 -3 -3 -3 -3 -3 -3 -3 -3 -2 -2 -2 -2 -2 -2 -2 -2 -2 -2 -2 -2 -1 -1 -1 -1 -1 -1 -1 -1 -1 -1 -0 -0 -0 -0 -0 -1 -1 -0 -0 -0 -0 0 0 1 1 1 1 1 2 2 2
-5 -5 -5 -5 -5 -5 -5 -5 -5 -5 -5 -5 -5 -5 -5 -5 -4 -4 -4 -4 -4 -4 -3 -3 -3 -3 -3 -3 -3 -3 -3 -3 -3 -3 -2 -2 -2 -2 -2 -2 -1 -1 -1 -1 -1 -1 -1 -1 -1 -0 -0 -0 -1 -1 -1 -1 -0 -0 -0 -0 0 0 1 1 1 1 1 2 2
-5 -5 -5 -5 -5 -6 -6 -6 -6 -6 -6 -6 -6 -6 -6 -5 -5 -5 -5 -5 -5 -5 -5 -5 -4 -4 -4 -4 -4 -4 -4 -4 -3 -3 -3 -3 -3 -3 -3 -2 -2 -2 -2 -2 -2 -2 -1 -1 -1 -1 -1 -1 -1 -1 -1 -0 -0 -0 -0 -0 0 0 0 1 1 1 1 1 2
-5 -5 -5 -5 -6 -6 -6 -6 -6 -6 -6 -6 -6 -6 -6 -6 -6 -6 -6 -6 -6 -6 -6 -6 -6 -5 -5 -5 -5 -5 -5 -4 -4 -4 -4 -4 -4 -4 -3 -3 -3 -3 -3 -2 -2 -2 -2 -1 -1 -1 -1 -1 -1 -1 -1 -0 -0 -0 -0 -0 0 0 0 0 1 1 1 1 1
-4 -4 -4 -5 -5 -5 -5 -5 -5 -6 -6 -6 -6 -6 -6 -6 -6 -6 -6 -6 -6 -6 -6 -6 -6 -6 -6 -6 -5 -5 -5 -5 -5 -5 -5 -5 -5 -4 -4 -4 -4 -3 -3 -3 -3 -2 -2 -2 -1 -1 -1 -1 -1 -1 -1 -1 -0 -0 -0 -0 0 0 0 0 0 1 1 1 1
-3 -2 -3 -3 -3 -3 -3 -3 -4 -4 -4 -5 -5 -5 -5 -5 -5 -5 -5 -5 -5 -5 -5 -5 -5 -5 -5 -5 -5 -5 -5 -5 -5 -5 -5 -5 -5 -5 -5 -4 -4 -4 -4 -4 -3 -3 -2 -2 -2 -1 -1 -1 -1 -1 -1 -1 -1 -1 -1 -1 -0 -0 -0 0 0 0 0 1 1
-2 -1 -1 -1 -1 -2 -2 -2 -2 -2 -2 -2 -3 -3 -3 -2 -2 -2 -2 -2 -3 -3 -3 -4 -3 -3 -3 -4 -4 -4 -4 -5 -5 -5 -5 -5 -5 -5 -5 -5 -5 -4 -4 -4 -4 -3 -3 -2 -2 -1 -1 -1 -1 -1 -1 -1 -1 -1 -1 -1 -1 -1 -1 -1 -0 -0 -0 0 0
Height
708 708 709 710 710 709 708 708 708 707 707 706 706 706 707 708 709 709 709 710 710 711 711 712 713 713 713 713 712 712 712 712 712 712 713 714 714 715 715 716 717 720 722 725 727 730 732 734 736 738 739 740 741 742 743 744 747 749 751 752 754 754 755 757 758 760 762 763 764
709 710 710 710 710 710 709 708 707 706 706 706 706 707 707 708 708 708 708 708 708 709 710 711 712 712 712 712 712 712 711 711 712 712 713 714 715 716 716 716 716 718 720 722 725 727 730 732 735 736 737 738 739 740 742 743 745 747 749 751 752 754 755 756 758 760 761 763 764
712 712 711 711 710 709 708 706 705 704 704 704 705 705 706 707 707 708 708 708 708 708 709 710 711 711 712 712 712 711 711 711 711 712 713 714 715 716 717 717 717 718 719 721 723 725 727 730 733 735 736 737 738 739 741 742 744 746 747 749 750 752 753 754 756 757 759 761 762
712 711 709 709 707 707 706 705 705 705 704 704 704 704 705 706 706 707 707 707 708 708 709 709 709 710 711 711 711 711 710 711 711 712 712 713 715 717 717 718 719 719 719 721 722 723 725 727 730 733 735 735 737 738 740 741 743 744 746 747 748 749 750 751 753 755 757 758 760
712 711 710 709 708 707 707 707 707 706 706 705 705 705 706 707 707 707 706 706 707 708 709 709 709 709 709 710 710 710 710 710 711 711 712 713 714 716 717 719 719 720 721 722 722 723 724 726 728 731 732 733 735 736 738 740 742 744 745 746 747 747 747 749 751 753 755 757 758
714 713 711 710 709 708 708 708 708 707 707 706 706 707 708 709 708 708 707 707 707 707 707 708 709 709 709 709 708 709 709 710 710 711 712 712 713 715 716 718 719 720 721 722 723 724 725 726 728 730 731 731 732 734 736 739 741 743 745 746 746 746 747 747 748 750 752 754 755
715 714 714 713 712 711 711 710 709 708 707 707 708 710 710 710 710 709 709 708 708 707 707 707 708 708 709 709 709 709 709 709 710 710 711 712 713 714 716 717 718 719 720 722 723 725 726 727 728 729 730 730 731 732 734 737 739 742 744 745 746 746 746 747 747 748 749 751 752
716 716 717 716 715 713 712 712 710 709 709 710 712 712 713 712 712 711 710 709 709 709 708 708 708 708 708 708 709 710 710 710 711 711 712 712 713 714 715 716 717 718 719 720 722 724 725 727 727 729 729 730 730 731 732 734 736 739 742 743 744 745 745 746 747 747 748 748 749
717 718 718 717 716 715 714 713 712 711 712 713 715 715 715 714 713 712 712 712 712 711 710 709 709 708 708 708 708 709 709 710 711 712 712 713 714 714 715 716 716 717 718 719 720 722 724 725 727 728 728 729 729 730 731 732 734 736 739 741 742 742 743 744 745 746 746 747 747
720 720 720 719 718 717 716 715 714 714 715 717 717 717 717 716 715 714 714 714 713 712 711 711 710 709 709 709 709 709 710 710 711 712 712 713 714 715 716 716 717 717 718 719 720 722 723 725 726 727 727 728 729 729 730 731 732 734 737 738 739 740 741 742 742 743 744 744 745
722 722 721 721 720 719 718 717 717 717 718 719 720 720 718 717 717 717 716 715 714 713 713 713 712 712 711 711 712 712 712 712 712 712 712 713 714 715 715 716 717 717 718 720 721 722 723 724 725 726 727 727 728 728 729 730 731 733 735 736 737 738 739 739 740 741 741 742 742
724 723 722 722 721 720 720 720 721 720 721 721 722 721 720 719 718 718 717 716 716 716 716 715 714 714 713 714 714 714 713 714 714 714 714 714 714 714 715 715 716 717 718 720 722 723 723 724 725 726 726 727 727 727 728 730 731 732 733 734 735 736 736 737 737 738 739 739 740
725 724 723 722 722 722 722 722 722 722 722 723 723 723 722 721 720 719 718 717 717 718 718 717 716 716 716 716 716 715 715 715 715 714 714 715 715 715 715 716 716 717 718 720 722 723 724 725 725 725 726 726 726 727 728 729 731 732 732 733 733 734 734 735 735 736 737 737 737
726 725 725 725 725 725 725 724 724 724 724 725 726 725 724 722 722 721 720 720 720 720 720 719 718 718 718 718 717 717 717 716 716 715 715 715 716 716 717 718 718 719 720 720 721 722 723 724 725 725 725 726 726 727 727 729 730 730 731 731 732 732 732 733 733 734 735 735 736
728 728 728 729 729 729 728 727 726 727 727 728 728 727 726 724 724 723 722 722 722 722 722 721 721 720 720 720 719 719 718 717 717 717 717 718 718 719 720 720 721 721 722 722 722 722 722 722 723 724 725 726 726 727 727 728 728 729 729 729 730 730 730 731 732 732 733 733 734
732 732 733 733 732 731 730 729 729 729 730 731 730 729 727 727 726 725 725 725 725 724 724 723 723 722 722 722 721 720 720 719 719 719 720 720 721 722 722 722 722 722 723 723 723 723 723 723 723 723 724 724 725 726 727 727 727 728 728 728 728 729 729 730 730 731 731 732 732
737 737 737 736 735 733 732 732 732 732 732 732 732 730 729 729 728 727 727 727 727 726 726 726 725 725 724 723 723 722 722 722 722 722 722 723 723 723 723 724 724 724 724 724 724 724 724 724 724 724 724 724 724 724 725 726 726 727 727 727 727 728 728 729 729 730 730 731 731
741 741 740 738 736 735 734 734 734 734 734 734 733 733 732 731 731 730 730 729 729 729 728 728 727 727 726 725 725 725 724 724 724 725 725 725 725 725 725 725 725 725 725 725 724 724 724 724 724 724 724 724 724 724 724 724 725 726 727 727 727 727 728 728 728 729 729 730 730
743 742 741 739 738 737 736 736 736 736 736 736 736 735 734 734 733 732 732 731 731 731 730 730 729 728 727 727 727 727 727 727 727 727 727 727 727 727 727 727 727 726 726 726 726 725 725 725 725 725 724 724 724 725 725 725 725 725 725 726 726 727 727 728 728 728 728 728 729
743 742 741 740 739 739 739 738 738 738 738 738 738 737 737 736 735 734 733 733 733 733 732 731 730 729 729 728 728 728 728 728 728 728 728 728 728 728 728 728 728 728 727 727 727 727 727 726 726 726 725 725 725 725 725 725 725 725 725 725 725 725 726 726 727 727 727 727 727
745 744 743 743 742 742 742 742 741 741 740 740 740 739 738 737 737 736 736 736 735 734 733 732 731 731 730 730 730 730 730 730 730 729 729 729 728 729 729 729 729 729 729 729 728 728 728 727 727 727 727 727 726 726 726 725 725 725 725 725 725 725 725 725 725 726 726 727 727
748 747 747 746 746 745 745 744 743 742 742 742 741 741 740 739 738 738 737 737 736 735 734 733 733 732 732 732 732 732 732 731 731 730 730 730 730 730 730 730 730 730 730 730 730 729 729 729 728 728 728 728 727 727 727 726 726 725 725 725 725 725 725 725 725 725 725 725 726
752 751 750 749 748 748 747 746 745 744 743 743 742 742 741 740 739 739 738 737 736 735 735 734 734 734 734 733 733 733 732 732 732 731 731 731 731 730 730 731 730 730 730 731 731 731 731 730 730 729 729 729 728 728 727 727 727 726 725 725 725 724 724 724 724 724 724 724 724
754 753 752 752 751 750 749 748 747 746 745 744 744 743 742 741 740 740 739 738 737 736 736 736 736 735 735 735 734 734 733 733 732 732 732 732 731 731 731 731 731 731 731 732 732 732 732 731 731 730 730 729 729 728 728 727 727 726 726 725 725 724 724 724 724 724 724 724 723
756 755 754 753 752 751 750 749 748 747 747 746 745 744 743 742 742 741 740 739 738 737 737 737 737 736 736 735 735 734 734 733 733 732 732 732 732 732 731 731 732 732 732 733 733 733 733 732 732 731 731 730 729 729 728 727 727 727 726 726 725 725 724 724 724 724 724 723 723
757 756 755 754 753 752 751 750 749 749 748 747 746 745 744 744 743 742 741 740 740 739 738 738 737 737 737 736 736 735 734 734 734 733 733 733 732 732 732 732 732 732 733 733 733 733 733 733 732 732 731 730 730 729 728 727 727 727 726 726 726 725 725 724 723 723 723 723 723
757 757 756 755 753 752 752 751 751 750 749 748 747 747 746 746 745 744 743 742 742 741 740 739 738 738 738 737 737 736 736 735 735 735 734 734 734 733 733 733 733 733 733 733 733 733 732 732 732 731 731 730 729 729 728 728 727 727 726 726 726 725 725 724 724 723 723 722 722
758 758 757 756 755 754 753 753 752 751 751 750 750 749 748 747 746 745 745 744 743 742 741 741 740 740 739 739 738 737 737 737 736 736 736 735 735 735 735 734 734 734 734 734 733 733 732 732 731 731 730 730 729 728 728 728 727 727 726 726 726 725 725 725 724 724 723 722 722
760 759 758 757 756 756 755 754 753 753 753 752 752 751 750 749 748 747 746 746 745 744 743 743 742 742 741 741 740 739 739 738 738 737 737 737 736 736 735 735 735 734 734 734 733 733 732 732 731 731 730 730 729 728 728 727 727 727 726 726 725 725 725 725 724 724 723 723 722
761 760 759 758 757 757 756 755 755 755 754 753 753 752 751 750 749 748 748 747 747 747 746 746 745 744 743 743 742 741 741 740 739 739 738 737 737 737 736 736 735 735 734 734 734 733 732 732 731 731 730 730 729 728 728 727 727 727 726 726 725 725 725 724 724 723 723 722 722
762 761 760 759 759 758 757 757 756 756 755 754 753 752 752 751 750 750 750 749 749 748 748 747 746 746 745 744 744 743 742 742 741 740 739 739 738 737 737 737 736 735 735 735 734 734 733 732 732 731 731 730 729 729 728 727 727 727 726 726 725 725 725 724 724 724 723 723 722
764 763 762 761 761 760 759 758 758 757 756 755 754 753 752 752 752 752 751 751 750 749 748 747 747 746 746 745 744 744 743 742 742 741 741 740 739 738 738 737 736 736 735 735 735 734 734 733 732 732 731 731 730 729 728 728 727 727 726 726 726 725 725 725 724 724 723 723 722
766 765 764 763 762 762 761 760 759 758 757 756 755 754 754 753 752 752 751 751 750 750 749 748 747 747 746 746 745 744 743 743 742 742 741 741 740 739 738 737 737 736 736 735 735 735 734 733 733 732 732 731 730 730 729 728 727 727 726 726 726 725 725 725 724 724 723 722 722
768 767 766 765 764 764 763 762 761 760 759 757 757 756 755 754 753 752 752 752 751 751 750 749 749 748 747 747 746 745 744 743 743 742 742 741 740 739 739 738 737 737 736 736 735 735 734 734 733 732 732 731 731 730 729 728 728 727 727 726 726 725 725 724 724 723 723 722 722
769 768 767 767 766 765 764 763 762 761 760 759 758 757 756 756 755 754 753 753 752 751 750 750 749 748 747 747 746 745 744 744 743 742 742 741 740 739 739 738 738 737 737 736 735 735 734 734 733 733 732 731 731 730 729 729 728 727 727 727 726 725 725 724 723 723 722 722 721
770 769 768 767 767 766 765 764 763 762 761 760 759 758 757 757 756 755 755 754 752 752 751 750 749 748 747 746 746 745 745 744 743 742 742 741 740 739 739 738 737 737 737 736 735 735 734 734 733 733 732 731 730 730 729 729 728 727 727 726 726 725 725 724 723 723 722 722 721
771 770 769 768 767 766 765 764 763 762 762 761 760 759 758 757 757 756 755 754 753 752 751 750 749 748 747 747 746 746 745 744 743 743 742 741 740 739 739 738 737 737 736 736 735 735 734 734 733 732 732 731 730 730 729 728 727 727 726 726 725 725 724 724 723 722 722 721 721
770 769 768 767 766 765 765 764 763 762 761 761 760 759 758 757 757 756 755 754 753 752 752 751 750 749 748 747 747 746 746 745 744 743 742 742 741 740 739 739 738 737 737 736 735 735 734 734 733 733 732 731 730 730 729 728 727 727 726 725 724 724 723 723 722 721 721 720 720
769 768 767 766 765 764 763 762 762 761 761 760 759 758 757 757 756 756 755 754 753 752 752 751 750 749 748 747 747 746 746 745 744 744 743 742 742 741 741 740 739 738 737 737 736 736 735 734 734 733 732 732 731 730 729 728 727 726 726 725 724 722 722 722 721 720 719 718 718
770 768 767 766 765 763 762 761 761 760 759 758 757 757 756 756 755 755 754 753 752 751 751 750 749 748 748 747 746 746 745 745 744 743 743 742 742 742 741 740 740 739 738 737 737 736 736 735 734 734 733 732 731 730 729 728 727 726 725 724 723 722 721 720 720 719 718 717 717
771 770 768 767 766 765 763 762 761 761 760 759 758 757 756 755 754 753 752 752 751 750 749 748 748 747 746 746 745 744 743 743 743 742 742 742 741 741 741 740 739 739 738 738 737 737 736 736 735 734 733 732 732 731 730 728 727 726 725 724 723 722 721 720 719 718 717 716 715
Wind_Speed
23 24 24 23 22 21 18 17 15 13 12 12 12 13 15 16 18 20 21 21 22 22 21 20 19 17 16 14 13 13 16 18 18 18 19 22 25 29 33 37 40 40 39 39 39 39 39 38 36 31 28 27 29 30 31 32 33 33 33 31 30 28 26 26 26 27 27 28 29
8 13 15 16 16 14 11 9 6 5 5 6 8 9 11 14 17 19 21 22 23 23 22 21 19 18 17 15 13 11 12 14 16 16 15 15 17 20 25 31 36 39 40 40 40 39 38 36 34 31 27 26 25 26 27 29 32 33 33 33 33 31 30 30 30 30 30 30 30
18 16 14 14 14 14 15 15 16 15 14 13 11 8 5 2 3 6 10 14 19 22 22 21 20 19 18 16 14 12 11 11 13 14 14 14 14 14 17 23 29 34 37 39 39 39 38 36 34 31 28 26 26 26 27 28 31 33 34 36 36 35 34 34 33 33 31 30 29
27 28 29 28 27 26 25 24 24 24 23 23 22 20 18 16 14 12 8 2 5 12 17 20 20 19 18 17 16 14 12 11 11 12 13 14 14 14 14 16 20 25 29 33 35 36 37 36 34 31 28 27 27 27 26 27 29 31 33 35 36 36 36 35 35 34 33 31 31
31 32 32 31 30 29 29 28 28 28 28 28 27 26 24 23 21 19 17 15 12 5 4 12 17 19 19 17 15 14 13 12 12 12 13 14 14 14 14 15 16 18 21 25 26 28 31 33 32 31 30 29 28 27 26 25 26 26 28 30 33 34 35 35 36 36 36 35 35
32 33 33 33 32 32 32 32 31 31 32 33 32 31 29 27 26 25 23 21 19 15 10 4 4 11 16 17 16 15 13 13 13 14 14 14 15 15 16 16 16 16 17 19 20 21 24 27 28 29 29 30 29 28 26 25 23 23 23 24 27 30 32 33 34 35 37 38 38
33 33 33 33 33 33 33 33 33 35 36 36 35 33 31 30 30 29 29 27 25 22 20 17 13 7 3 9 13 14 15 15 15 15 16 16 16 17 17 17 17 16 16 17 18 20 21 23 24 25 25 27 27 27 27 26 24 23 22 22 23 24 26 28 29 31 32 34 35
34 33 32 32 33 34 33 33 34 36 38 37 35 33 31 31 31 31 32 32 31 29 27 25 23 20 16 11 6 4 7 11 14 16 18 18 18 18 18 18 17 17 17 17 18 21 23 24 24 23 22 23 24 25 27 27 26 25 24 24 24 24 24 25 25 26 27 28 30
34 33 33 33 34 34 34 34 35 37 37 37 35 33 32 32 32 33 33 33 33 33 32 30 28 27 25 24 22 18 14 9 5 6 11 15 18 19 20 20 20 19 19 19 20 22 24 25 25 24 23 22 22 23 25 26 26 26 27 27 27 27 26 26 25 25 25 26 27
34 33 33 33 34 34 34 35 35 36 36 35 34 33 33 32 33 33 32 32 34 35 34 34 32 31 30 29 28 26 25 22 20 16 12 8 8 11 14 17 19 20 21 21 21 22 23 24 24 23 23 22 21 22 23 25 26 27 29 30 30 29 29 29 28 27 27 28 28
35 35 34 34 34 34 34 35 35 35 35 34 33 33 33 33 33 32 32 33 34 35 35 35 34 34 33 32 31 29 28 27 25 24 22 20 17 13 9 7 7 10 14 16 17 18 19 21 22 22 22 21 20 20 20 22 24 27 29 30 31 30 29 30 30 30 30 30 30
37 37 36 36 35 36 35 34 34 35 35 33 33 33 33 33 33 33 33 34 34 34 34 34 34 35 34 33 32 31 30 30 29 28 27 26 25 23 20 17 13 9 4 4 8 12 15 17 19 19 19 19 19 18 19 20 22 24 26 27 28 28 28 28 29 30 30 30 30
39 39 39 39 38 38 36 35 35 35 35 33 32 32 32 32 33 33 34 34 34 33 33 33 33 33 33 33 32 32 32 31 31 30 30 29 28 26 25 23 20 17 14 10 4 2 8 13 16 18 18 18 18 18 18 19 20 21 22 23 23 24 25 26 26 27 28 28 28
41 41 40 39 39 37 36 35 35 35 35 33 32 31 31 31 32 33 34 33 33 32 32 32 32 32 32 31 31 31 31 31 31 31 30 29 28 27 26 25 23 21 20 18 15 11 7 2 6 12 16 18 19 20 20 20 21 21 21 21 21 22 23 23 24 25 25 26 26
40 40 39 38 37 35 34 33 33 34 33 32 31 30 30 31 32 33 33 33 32 31 31 30 31 31 31 31 31 31 31 30 30 30 29 28 27 26 26 25 24 23 22 21 20 19 18 16 13 8 2 7 12 16 19 20 21 21 21 20 20 21 22 23 24 24 24 24 24
37 37 35 34 33 32 32 31 31 31 31 30 30 30 31 31 32 33 32 31 31 31 30 29 30 30 30 30 30 30 30 30 30 29 29 27 26 25 24 24 23 23 22 22 22 21 20 19 19 18 16 11 6 2 5 10 14 17 19 20 20 20 20 21 22 22 21 21 21
33 32 31 31 31 31 31 31 30 30 30 30 31 31 31 31 31 32 32 31 30 30 29 29 30 30 30 29 30 30 30 30 29 29 28 27 26 25 24 23 22 22 21 21 21 21 21 20 19 18 18 17 15 13 10 6 3 6 11 15 17 18 18 18 18 18 18 18 18
29 28 28 29 30 31 31 31 31 30 30 30 30 31 31 31 31 31 31 31 30 30 29 29 29 30 30 30 29 29 29 29 28 27 26 26 25 25 24 23 22 21 20 20 20 20 20 20 19 18 17 17 16 15 13 12 10 8 5 5 9 12 14 15 16 16 16 16 16
28 28 28 29 30 31 31 31 31 31 30 30 30 30 31 31 31 31 32 31 30 30 30 29 29 29 30 30 29 28 28 28 27 26 25 24 24 23 23 22 22 21 21 20 20 19 19 18 17 17 17 17 16 15 14 13 12 11 10 8 6 5 6 9 12 14 16 16 16
29 29 30 30 31 31 31 31 30 30 29 29 30 30 30 30 31 31 31 30 30 30 30 30 30 30 30 30 30 29 28 27 27 26 25 24 24 23 22 21 21 22 22 22 21 20 19 18 17 16 16 16 16 16 15 14 14 13 12 10 10 9 7 6 6 8 12 15 16
30 29 30 30 30 30 30 30 29 29 29 29 29 29 30 30 30 30 30 29 29 29 29 30 30 30 30 29 29 28 27 26 27 27 26 25 24 23 22 21 21 21 22 23 23 22 21 20 19 17 16 16 16 16 16 16 15 15 14 13 12 10 9 8 8 7 7 9 12
28 28 28 29 28 28 28 28 29 29 29 29 30 30 30 30 30 30 29 30 30 30 29 29 29 29 29 29 28 27 26 26 27 27 26 25 24 23 22 21 21 22 23 24 25 24 22 21 20 19 18 17 17 17 16 16 16 15 15 15 14 13 12 11 10 9 8 8 9
26 26 26 27 27 27 27 28 29 29 30 30 30 30 30 30 30 30 30 31 31 31 30 29 29 29 29 29 28 27 27 27 27 27 26 25 25 24 23 21 21 22 23 24 25 25 23 22 21 20 18 17 18 18 17 16 16 16 16 16 15 15 14 14 13 12 11 10 9
24 25 25 26 26 27 27 28 29 29 30 30 30 30 30 30 30 30 31 31 32 32 31 30 29 29 29 29 29 28 27 28 28 28 27 26 25 25 24 23 22 21 21 22 23 23 23 22 21 20 18 18 18 17 16 15 16 16 16 16 17 16 16 15 15 14 14 14 12
25 25 26 27 27 28 28 29 30 30 30 30 30 30 30 30 30 31 31 31 31 31 31 31 30 30 29 30 29 29 28 28 29 29 29 28 26 26 25 24 22 21 21 21 22 22 21 21 20 19 18 18 17 16 15 15 15 15 15 15 16 17 17 17 16 16 15 15 15
26 27 28 29 29 30 31 31 31 31 30 31 31 31 31 30 30 31 31 31 31 31 30 31 30 30 29 29 30 30 29 29 29 29 29 29 28 27 26 24 23 22 21 21 22 22 21 21 20 20 20 19 17 16 16 15 15 15 15 15 15 15 16 17 17 17 17 16 16
28 28 29 30 31 32 32 32 32 31 31 31 32 32 31 30 30 31 32 31 31 30 30 30 29 29 28 29 30 31 30 29 28 28 28 28 28 27 26 25 23 22 21 21 22 22 22 22 21 21 21 21 19 17 16 15 15 15 15 15 14 14 15 16 16 17 18 17 17
28 28 29 30 30 31 31 31 31 31 30 31 31 30 30 30 31 31 32 31 31 30 30 29 29 28 28 28 30 30 30 29 28 28 27 27 27 27 26 25 24 23 22 22 22 23 23 22 22 22 22 21 21 19 17 16 16 15 15 15 14 15 15 15 16 16 17 17 17
28 28 28 29 29 30 30 30 30 29 29 28 28 29 29 30 31 31 31 31 31 31 30 29 28 28 28 29 29 29 28 28 28 27 27 27 27 27 26 25 25 24 23 22 22 23 23 23 22 22 22 21 21 20 19 17 17 16 16 15 15 16 16 16 16 16 16 17 17
28 28 28 28 28 29 29 29 28 28 27 27 27 28 29 29 29 29 29 29 29 28 28 27 27 28 28 28 27 27 27 27 27 27 27 27 27 26 26 25 25 24 23 23 23 23 23 23 22 22 22 22 20 20 19 18 18 18 17 16 17 17 17 17 17 17 17 18 18
28 28 28 28 28 28 28 28 28 27 27 27 27 28 28 28 28 27 27 27 27 27 26 27 27 27 27 26 26 26 26 26 26 26 26 26 26 26 26 25 25 24 23 22 22 22 22 22 22 22 22 22 20 19 19 18 18 18 17 17 17 17 17 17 17 17 17 17 18
27 27 27 27 27 27 27 27 27 27 27 27 27 27 27 27 26 26 26 25 25 26 27 27 27 27 26 26 25 25 25 24 25 25 25 25 25 25 25 25 24 24 23 22 22 22 22 22 22 22 22 21 20 19 19 18 18 18 17 17 17 17 17 16 17 17 17 17 17
25 25 25 25 26 26 26 26 26 26 26 27 27 27 26 26 26 26 26 25 25 25 26 26 26 25 25 24 24 24 23 23 23 24 24 24 24 24 24 24 24 23 22 22 22 22 22 22 22 22 21 21 19 18 18 18 18 17 17 17 17 17 17 17 17 17 17 17 17
24 23 23 23 23 24 24 25 25 25 25 25 26 25 25 25 26 26 25 25 24 24 25 25 25 24 24 23 23 23 22 22 23 23 23 24 24 24 24 24 23 22 22 22 22 22 22 22 22 22 21 20 19 18 17 18 17 17 17 17 17 17 17 17 17 17 17 17 17
22 22 22 22 22 22 23 23 24 24 24 24 24 24 24 24 24 24 23 23 23 24 24 24 24 24 24 23 23 22 22 22 22 23 23 23 24 23 23 23 23 22 21 21 21 22 22 22 22 22 22 20 19 18 18 17 17 16 16 17 17 17 17 17 17 17 17 17 17
21 21 21 21 21 21 21 22 22 22 22 22 22 22 21 21 21 21 21 21 22 23 23 24 24 24 24 23 23 22 21 21 22 22 23 23 23 23 23 23 22 22 21 21 21 22 22 22 22 23 22 20 19 18 18 17 17 17 17 17 17 17 17 17 17 17 16 16 16
22 22 21 21 20 20 20 21 21 20 20 19 19 19 19 19 19 19 19 19 20 20 21 21 22 23 22 21 21 20 20 20 20 21 22 22 22 22 22 22 22 22 22 21 21 22 22 22 22 22 22 20 19 18 18 18 17 17 17 18 17 17 17 17 17 17 17 16 17
24 24 23 22 22 21 21 21 21 20 20 19 19 18 18 18 17 17 17 17 17 18 18 18 19 20 19 18 18 18 18 18 18 19 20 21 20 19 19 20 20 21 21 21 21 21 21 22 22 22 21 20 19 19 18 18 18 18 18 18 18 18 18 17 17 17 17 17 17
26 26 26 26 25 25 25 25 24 23 23 22 22 21 21 20 19 19 18 18 18 17 16 17 18 19 18 16 15 16 16 16 17 18 18 19 18 17 16 17 18 19 19 19 19 20 20 21 21 21 20 19 19 18 18 18 18 18 19 19 19 19 19 18 18 18 18 19 19
27 27 28 28 29 29 29 30 29 29 28 28 28 27 26 25 24 24 23 23 23 22 20 20 21 22 21 18 17 17 17 17 17 18 18 18 17 15 14 14 16 17 18 18 18 18 19 19 19 19 19 18 18 18 18 18 18 18 19 19 19 19 20 19 19 19 20 20 20
26 27 27 27 28 29 30 30 30 30 30 30 30 30 29 28 29 29 29 29 29 28 27 27 27 28 27 25 24 23 23 22 22 22 21 20 19 17 16 16 16 17 18 17 16 17 18 18 18 18 18 18 18 17 17 17 17 18 19 19 19 19 20 20 20 20 20 21 21
Wind_Direction
236 229 223 220 217 214 210 209 214 220 224 225 228 234 240 244 245 246 247 247 246 246 246 244 241 238 236 235 232 226 219 214 208 204 202 202 204 203 202 202 204 205 206 207 206 206 207 209 208 206 203 199 196 196 197 200 203 207 210 213 216 216 217 217 216 215 213 212 210
228 221 217 216 214 213 212 207 210 218 228 238 246 250 251 251 248 246 246 246 247 247 247 245 240 235 232 231 230 225 219 215 213 213 211 208 205 201 199 200 199 201 202 203 203 204 206 210 213 214 214 213 208 204 202 202 203 205 207 210 211 212 211 211 211 211 210 210 210
68 70 73 77 80 78 73 67 64 66 68 70 69 66 58 27 287 261 251 246 244 243 242 240 236 233 230 230 229 226 219 212 211 213 216 218 216 209 200 194 193 195 198 199 200 201 204 208 213 217 219 218 216 214 212 208 206 205 204 204 205 205 205 206 207 207 207 208 209
62 60 60 62 63 63 63 61 61 63 65 66 67 67 65 61 57 54 51 43 245 237 234 231 229 228 229 229 228 227 222 216 211 210 211 215 218 219 213 201 192 191 194 196 197 199 202 204 208 212 215 215 214 213 212 211 210 208 206 205 204 203 204 205 207 209 210 213 214
56 56 57 58 59 60 60 60 59 59 60 62 62 61 59 57 56 58 59 59 54 51 220 221 222 222 224 226 227 226 224 221 218 214 212 211 212 214 214 212 205 199 196 198 198 199 201 202 204 206 207 206 206 206 207 208 210 212 211 208 207 206 206 206 208 211 214 218 221
51 52 54 56 57 58 59 59 58 58 59 60 59 57 54 52 52 54 56 57 57 58 63 84 198 216 218 220 222 224 224 223 223 221 218 214 211 209 208 208 209 209 210 211 209 206 203 201 201 201 200 199 199 201 203 205 207 209 211 210 208 207 207 207 208 210 213 217 220
51 51 51 52 54 56 56 57 57 58 58 57 56 53 52 51 51 52 54 57 58 60 62 62 61 71 167 209 217 220 221 224 225 225 223 219 214 209 206 204 204 206 209 214 218 218 213 206 204 202 199 195 195 196 198 200 202 205 210 213 212 211 210 210 211 213 215 217 220
52 51 50 50 52 53 53 54 55 56 56 55 52 50 49 49 50 51 53 54 54 56 58 61 62 64 67 70 84 154 204 217 223 223 221 220 216 210 206 202 200 200 203 207 215 219 221 219 217 216 213 208 204 202 201 201 203 208 215 221 223 221 220 220 220 221 222 223 223
50 49 49 49 50 51 51 52 53 54 54 53 50 49 48 49 50 50 51 51 52 54 57 58 61 65 67 66 64 64 69 83 120 181 204 213 212 209 205 203 202 202 204 208 213 219 222 224 225 226 227 225 221 218 214 212 212 215 222 227 228 228 227 226 226 226 226 227 227
48 47 47 47 48 49 49 50 51 52 52 51 50 48 48 48 49 49 49 50 52 53 54 55 57 60 63 63 62 62 63 65 67 73 84 109 154 183 195 200 203 206 208 210 213 216 220 222 225 228 230 230 229 226 224 221 219 221 224 227 228 228 228 229 228 228 229 230 230
47 47 47 47 47 47 48 48 49 50 50 49 48 47 47 47 47 48 50 52 52 51 50 52 54 55 56 57 58 59 61 64 66 68 69 69 72 78 91 122 170 195 204 206 209 210 211 215 219 223 226 227 226 224 222 221 220 220 221 223 224 224 225 226 227 227 228 229 230
46 46 46 47 47 47 47 46 46 46 46 45 44 44 44 45 46 48 49 50 49 48 48 50 51 52 52 52 53 55 57 60 62 65 66 66 66 65 65 65 68 74 103 187 209 211 211 212 214 216 218 220 220 219 218 218 217 217 216 217 217 217 218 220 221 222 223 225 226
45 45 45 46 46 46 45 44 44 43 43 42 41 41 42 43 45 47 48 48 47 47 47 49 50 50 49 49 50 51 53 54 57 58 59 60 61 61 62 62 62 61 61 60 61 232 233 230 228 225 223 223 223 223 224 226 226 225 223 220 217 216 217 218 220 221 222 223 224
46 46 45 45 45 44 43 43 43 42 41 40 39 39 40 41 43 46 47 46 45 45 45 46 48 49 48 48 48 48 49 51 52 53 54 54 54 54 55 55 56 57 59 60 60 58 51 3 256 243 238 236 235 236 237 238 238 237 235 232 228 227 227 228 229 230 230 230 230
47 46 45 45 44 43 43 43 42 42 41 39 38 38 39 40 42 44 45 45 45 44 43 43 45 46 47 47 47 47 47 48 49 50 50 50 49 48 47 47 47 48 50 52 55 56 55 53 48 38 332 251 244 242 241 241 241 240 240 238 237 236 236 237 237 237 236 236 236
46 45 44 43 43 43 43 42 42 41 40 38 38 39 39 40 41 43 44 43 43 43 42 41 42 44 45 46 46 46 46 46 47 48 49 48 47 45 43 41 40 39 39 41 43 45 46 48 48 49 49 47 42 340 255 246 243 242 242 242 242 241 240 239 239 238 237 237 238
46 44 42 41 41 42 42 42 42 40 39 38 39 40 40 41 42 43 43 43 42 42 42 41 42 42 43 44 45 46 46 46 46 47 48 48 47 45 43 41 38 35 33 33 33 33 33 34 36 38 41 43 45 44 41 30 331 271 255 248 244 242 240 239 238 238 238 239 241
44 42 40 40 41 42 42 42 42 41 40 39 39 40 41 42 43 43 44 44 43 42 41 41 42 42 43 44 44 45 45 45 45 45 46 46 46 45 44 42 40 37 34 31 29 27 25 23 22 23 24 26 28 31 34 36 33 23 355 295 262 250 244 240 238 236 235 237 240
41 39 39 39 40 41 42 42 42 41 41 40 41 41 42 43 43 44 44 44 43 43 42 41 41 41 42 43 44 44 44 44 44 44 45 46 46 45 43 42 41 40 38 35 31 27 23 18 15 13 12 11 12 13 15 18 20 22 24 20 4 324 280 260 249 242 238 235 235
39 38 38 38 40 40 41 41 42 42 41 41 41 42 42 42 43 43 43 42 42 43 42 41 40 40 40 42 42 42 42 42 42 43 44 45 45 44 42 41 41 41 40 38 34 30 25 21 16 12 7 4 2 1 1 1 0 1 3 8 10 9 1 341 307 277 259 249 243
38 38 38 39 40 41 41 41 42 42 42 42 41 41 41 42 42 42 41 41 41 42 41 40 39 38 38 38 39 39 39 39 39 40 41 42 43 43 43 41 40 40 39 36 33 30 27 23 20 17 11 6 2 360 357 354 351 349 348 347 346 347 350 353 353 344 322 294 271
39 39 39 40 41 41 41 41 41 42 42 41 40 40 40 40 40 40 40 40 40 40 40 39 38 37 36 36 36 36 36 36 37 37 38 39 40 41 42 41 40 38 36 33 29 26 23 21 20 18 14 10 7 4 1 357 352 349 345 342 338 334 331 331 334 338 341 339 325
39 40 40 40 40 40 40 40 40 40 40 39 39 39 38 38 38 38 39 38 39 38 38 38 37 35 35 34 34 33 33 33 33 34 34 35 36 37 38 39 38 36 33 29 25 21 19 17 16 14 12 9 7 6 4 1 357 354 350 346 341 336 331 327 324 321 321 323 329
39 39 40 40 40 40 40 39 39 38 38 37 37 37 36 36 36 36 36 36 36 36 36 35 35 34 33 33 32 31 30 29 29 30 30 31 31 32 33 34 34 33 30 26 21 17 16 14 12 10 7 6 4 3 1 360 358 356 353 349 346 342 338 333 327 322 317 313 311
38 38 39 39 39 39 39 38 38 37 36 36 36 36 35 35 34 34 34 34 33 33 33 33 32 32 31 30 29 29 28 27 26 26 26 27 27 28 28 28 28 28 26 21 15 13 13 13 11 8 5 2 1 359 358 357 357 355 352 349 346 344 341 337 334 330 324 318 313
37 37 37 37 38 38 38 38 37 36 36 36 36 35 34 34 33 33 33 32 31 31 31 30 30 29 28 27 26 26 26 25 24 23 23 23 23 24 24 24 23 23 21 16 11 9 9 9 9 7 4 2 359 357 355 354 353 352 350 348 345 343 340 337 335 334 331 327 321
37 36 36 37 38 37 37 37 37 36 36 36 35 35 34 34 34 33 32 31 30 29 29 28 27 26 25 24 24 25 24 23 22 21 21 20 21 20 20 19 19 19 17 12 8 6 6 6 6 5 4 1 358 356 353 351 349 348 347 346 344 342 339 335 333 332 331 330 327
35 35 35 36 36 36 36 36 36 35 35 34 34 34 34 34 34 33 32 31 29 28 27 26 26 25 24 23 23 23 22 21 20 19 18 18 18 17 16 15 15 16 15 11 6 4 4 3 3 3 2 359 356 354 352 350 348 346 345 343 341 339 337 334 331 329 328 327 327
33 33 33 33 33 33 33 33 33 33 32 32 33 33 33 34 33 32 31 30 29 28 26 25 25 25 24 23 22 22 21 20 19 17 16 16 16 14 13 12 12 12 12 9 5 3 2 1 1 0 360 358 355 352 350 349 346 344 342 340 338 337 335 332 329 327 326 325 324
32 32 31 31 30 30 30 30 30 30 30 30 31 31 32 32 31 30 29 28 27 26 25 25 25 26 25 24 23 22 21 19 18 17 16 14 13 11 10 9 9 10 10 7 3 0 360 359 359 358 357 356 354 351 349 347 344 342 340 337 336 335 334 331 328 326 324 323 322
31 31 30 30 29 28 28 28 28 28 28 28 29 29 29 29 28 27 26 25 24 24 25 25 26 26 25 24 23 22 21 19 18 17 15 13 10 9 7 7 8 8 7 4 0 358 358 358 357 356 355 354 352 349 347 345 342 340 337 335 334 332 331 329 327 325 324 323 321
30 30 29 29 27 27 26 27 27 27 27 28 28 27 26 26 25 24 23 22 21 22 23 24 23 23 22 22 22 22 21 19 18 16 14 12 9 7 6 6 6 7 5 2 358 356 355 355 355 354 353 352 350 347 345 343 340 338 335 333 331 330 328 326 325 323 322 322 321
28 28 28 28 27 26 26 26 26 26 27 27 26 26 24 23 23 23 21 20 19 20 21 21 20 19 18 18 18 18 17 17 16 14 12 10 7 6 5 5 5 5 3 0 357 355 353 353 353 352 351 350 348 346 344 342 339 336 334 332 330 329 327 325 323 322 321 321 320
25 26 27 27 26 25 25 25 25 26 25 25 25 25 24 23 21 20 19 17 17 18 19 20 19 18 17 17 17 16 15 14 14 12 10 7 5 4 3 3 4 4 3 360 357 355 353 351 351 350 349 348 347 345 343 341 338 335 332 331 329 328 327 325 323 322 321 320 319
23 24 25 25 25 24 24 24 24 25 24 24 23 23 23 22 21 19 17 15 15 16 18 19 18 17 17 18 18 17 15 13 12 10 8 5 3 2 1 1 2 3 3 0 357 354 352 349 348 348 348 347 345 344 342 339 336 334 332 329 328 327 325 324 322 321 319 319 318
21 22 22 23 23 23 23 23 23 23 22 21 21 20 20 21 20 18 16 13 14 15 17 16 16 15 16 16 17 17 16 13 10 8 7 5 3 1 359 359 360 1 2 359 356 353 350 348 347 346 346 345 344 342 340 338 335 333 331 329 327 326 325 323 321 320 318 317 317
19 19 19 19 19 20 20 20 20 20 19 18 17 17 17 17 17 16 14 12 12 13 13 14 13 13 13 13 13 14 15 13 10 7 6 5 4 1 358 357 358 360 360 358 354 350 348 347 345 345 345 344 342 340 338 336 334 332 330 328 326 325 325 323 321 319 318 316 315
17 17 17 16 16 16 16 17 17 17 15 14 14 14 14 13 12 12 11 11 10 9 9 10 9 9 9 9 9 10 12 13 10 7 4 4 5 2 358 355 357 359 359 356 351 348 346 345 344 344 344 342 340 339 337 335 333 331 329 328 326 326 325 323 322 320 318 316 315
14 15 15 14 14 13 13 14 14 13 12 11 10 10 11 10 10 9 8 9 9 8 8 7 6 6 6 5 3 5 8 9 8 6 4 3 3 1 356 353 355 357 358 354 349 345 344 343 342 342 342 340 339 337 336 334 332 331 329 328 327 326 325 325 324 322 319 318 317
12 12 12 12 11 11 10 10 10 10 9 8 8 7 7 7 6 6 6 7 7 7 7 5 4 4 5 5 3 2 3 4 4 4 3 1 0 358 355 353 352 354 354 351 346 343 342 342 341 341 341 339 338 337 335 334 332 330 329 329 328 326 325 325 324 323 321 320 319
9 8 8 8 8 8 8 7 6 6 6 6 6 5 3 3 3 3 4 4 5 5 4 3 3 3 4 5 3 1 0 360 0 1 1 360 359 358 356 353 350 350 350 348 346 343 342 342 341 341 341 341 339 337 335 334 331 328 327 327 326 325 323 323 322 322 321 320 320